Regional Weather Roundup
Issued by NWS

Home | Current Version | Previous Version | Graphics & Text | Print | Product List | Glossary On
Versions: 1 2 3 4 5 6 7 8 9 10 11 12 13 14 15 16 17 18 19 20 21 22 23 24 25 26 27 28 29 30 31 32 33 34 35 36 37 38 39 40 41 42 43 44 45 46 47 48 49 50
000
ASUS44 KMEG 292310
RWRTN
TENNESSEE HOURLY STATE WEATHER ROUNDUP
NATIONAL WEATHER SERVICE MEMPHIS TN
600 PM CDT SAT APR 29 2017

TNZ002-004-019-021-049-052-054-088>092-300000-
WEST TENNESSEE

CITY           SKY/WX    TMP DP  RH WIND       PRES   REMARKS
MEMPHIS INTL   MOSUNNY   86  69  56 S17G28    29.79F HX  90
NWS MEMPHIS      N/A     86 N/A N/A MISG        N/A
JACKSON        SUNNY     84  69  60 S12G29    29.85S
DYERSBURG      MOSUNNY   86  68  54 S13G20    29.82F
SOMERVILLE     MOSUNNY   84  68  58 S12G18    29.82S
UNION CITY     MOSUNNY   84  68  58 S16G23    29.83R
BOLIVAR        MOSUNNY   84  68  58 SE18      29.85S
HUNTINGDON     PTSUNNY   84  68  58 S15G22    29.86S
LEXINGTON      MOSUNNY   84  66  54 S17G30    29.88F
SAVANNAH       SUNNY     84  68  58 S13G21    29.88F
$$

TNZ008-025-027-028-033-062-065-066-300000-
NORTH MIDDLE TENNESSEE

CITY           SKY/WX    TMP DP  RH WIND       PRES   REMARKS
NASHVILLE      MOSUNNY   87  63  44 S16G23    29.94F
PORTLAND       SUNNY     86  64  48 S13       29.92S
CLARKSVILLE    MOSUNNY   85  65  51 S12G23    29.90R
SMYRNA         MOSUNNY   84  64  50 S9G16     29.94F
COOKEVILLE     SUNNY     84  66  54 S9G17     29.97F
GALLATIN       SUNNY     86  66  51 S8G17     29.95S
CROSSVILLE     SUNNY     81  62  52 S9G20     30.07S
$$

TNZ061-075-076-078-094-096-097-300000-
SOUTH MIDDLE TENNESSEE

CITY           SKY/WX    TMP DP  RH WIND       PRES   REMARKS
FAYETTEVILLE   MOSUNNY   84  63  48 S14G23    29.97F
TULLAHOMA      SUNNY     82  61  47 S9        29.99F
WINCHESTER     MOSUNNY   82  66  57 SE9       29.99S
MCMINNVILLE    SUNNY     82  66  57 SW3       30.00R
COLUMBIA       SUNNY     84  70  61 S12       29.93S
SHELBYVILLE    SUNNY     82  68  61 S12       29.97S
$$

TNZ017-018-042-046-047-300000-
NORTHEAST TENNESSEE

CITY           SKY/WX    TMP DP  RH WIND       PRES   REMARKS
TRI CITIES     CLOUDY    80  68  66 CALM      30.05F
ELIZABETHTON   CLOUDY    77  70  78 CALM      30.05F
$$

TNZ012-013-036-069-073-074-300000-
CENTRAL EAST TENNESSEE

CITY           SKY/WX    TMP DP  RH WIND       PRES   REMARKS
KNOXVILLE      MOSUNNY   84  79  85 SW10      30.01S HX  96
OAK RIDGE      SUNNY     88  61  40 VRB6      30.03S
DOWNTOWN KNOXV SUNNY     88  61  40 W8        30.01S
GATLINBURG     SUNNY     90  57  33 SW8       30.01R
MORRISTOWN     SUNNY     88  63  42 W7        30.01F
JACKSBORO      SUNNY     86  64  48 S8G14     30.05S
$$

TNZ083-085-099-300000-
SOUTHEAST TENNESSEE

CITY           SKY/WX    TMP DP  RH WIND       PRES   REMARKS
CHATTANOOGA    TSTM      76  68  76 S7        30.01S VSB 1
$$

SKY/WX REPORTED AS FAIR MEANS FEW OR NO CLOUDS BELOW
12 THOUSAND FEET.




USA.gov is the U.S. government's official web portal to all federal, state and local government web resources and services.